Date_and_time,latitude,longitude,wind_speed,RelWindDirFrom,WindDirFrom,air_pressure,air_temperature,relative_humidity,Temp,platform_speed_wrt_ground,air_pressure_at_mean_sea_level,platform_orientation
2018-06-17 23:50,50.9117283333333,-96.9825316666667,11.3,19.0,7,987.56,23.1,32,19.41,0.0,1013.15,350.2
2018-06-18 00:00,50.9117216666667,-96.9825316666667,11.0,19.0,10,987.58,22.9,32,19.43,0.0,1013.21,360.0
2018-06-18 00:10,50.911725,-96.98253,11.3,17.9,13,987.64,22.8,32,19.45,0.0,1013.31,360.0
2018-06-18 00:20,50.9117366666667,-96.9825283333333,10.2,16.4,11,987.75,22.6,33,19.47,0.0,1013.42,360.0
2018-06-18 00:30,50.9117416666667,-96.982505,9.6,15.8,16,987.91,22.5,33,19.47,0.0,1013.59,360.0
2018-06-18 00:40,50.91174,-96.9825083333333,8.1,15.0,11,987.96,22.5,33,19.46,0.0,1013.66,360.0
2018-06-18 00:50,50.91173,-96.98253,9.5,18.1,18,987.98,22.3,32,19.45,0.0,1013.69,360.0
2018-06-18 01:00,50.9117366666667,-96.9825266666667,7.9,13.2,6,988.06,22.2,33,19.43,0.0,1013.79,270.0
2018-06-18 01:10,50.9117366666667,-96.982515,7.2,12.0,1,988.15,22.0,33,19.41,0.0,1013.89,270.0
2018-06-18 01:20,50.911735,-96.9825183333333,6.4,9.7,5,988.19,21.8,33,19.39,0.0,1013.93,270.0
2018-06-18 01:30,50.9117333333333,-96.98252,6.4,9.5,0,988.13,21.5,34,19.36,0.0,1013.87,270.0
2018-06-18 01:40,50.9117333333333,-96.98252,6.4,9.2,356,988.15,21.0,36,19.32,0.0,1013.91,270.0
2018-06-18 01:50,50.9117333333333,-96.9825216666667,6.4,8.6,355,988.21,20.8,36,19.29,0.0,1014.00,270.0
2018-06-18 02:00,50.9117333333333,-96.9825216666667,5.6,7.4,350,988.29,20.4,38,19.25,0.0,1014.10,90.0
2018-06-18 02:10,50.9117333333333,-96.9825216666667,5.6,7.2,347,988.35,19.9,39,19.22,0.0,1014.19,90.0
2018-06-18 02:20,50.9117333333333,-96.98252,5.7,6.9,346,988.34,19.4,41,19.18,0.0,1014.21,90.0
2018-06-18 02:30,50.9117483333333,-96.982525,5.3,6.6,345,988.31,18.8,42,19.14,0.0,1014.20,90.0
2018-06-18 02:40,50.9117033333333,-96.9825216666667,3.5,5.6,330,988.38,18.5,41,19.10,0.0,1014.30,90.0
2018-06-18 02:50,50.9117383333333,-96.9825283333333,3.0,4.3,315,988.47,18.4,41,19.06,0.0,1014.41,90.0
2018-06-18 03:00,50.9117233333333,-96.9825266666667,2.9,4.0,303,988.59,18.1,43,19.03,0.0,1014.54,360.0
2018-06-18 03:10,50.9117266666667,-96.9825266666667,3.9,4.6,288,988.73,17.6,45,19.00,0.0,1014.72,360.0
2018-06-18 03:20,50.9117316666667,-96.98253,3.4,4.1,285,988.82,17.6,44,18.96,0.0,1014.82,360.0
2018-06-18 03:30,50.9117316666667,-96.9825316666667,3.6,4.3,298,988.88,17.4,45,18.92,0.0,1014.92,360.0
2018-06-18 03:40,50.9117333333333,-96.9825333333333,2.6,3.9,308,988.96,16.9,47,18.89,0.0,1015.03,360.0
2018-06-18 03:50,50.9117333333333,-96.98253,3.1,3.8,329,989.09,16.3,49,18.86,0.0,1015.22,360.0
2018-06-18 04:00,50.911745,-96.98254,3.0,3.8,308,989.15,16.0,49,18.82,0.0,1015.31,312.1
2018-06-18 04:10,50.9117233333333,-96.9825383333333,4.0,4.6,297,989.18,15.7,51,18.79,0.0,1015.37,312.1
2018-06-18 04:20,50.911735,-96.98254,4.5,5.1,281,989.25,15.5,51,18.74,0.0,1015.48,312.1
2018-06-18 04:30,50.9117366666667,-96.98253,4.8,5.9,282,989.29,15.6,50,18.71,0.0,1015.54,312.1
2018-06-18 04:40,50.9117366666667,-96.9825266666667,5.0,5.7,283,989.29,15.7,50,18.67,0.0,1015.54,312.1
2018-06-18 04:50,50.9117566666667,-96.9825,5.5,6.2,288,989.27,15.6,50,18.62,0.0,1015.54,312.1
2018-06-18 05:00,50.9116883333333,-96.9825133333333,4.7,5.8,287,989.28,15.3,51,18.58,0.0,1015.58,156.9
2018-06-18 05:10,50.911735,-96.98249,4.9,5.6,281,989.41,15.3,51,18.55,0.0,1015.71,156.9
2018-06-18 05:20,50.9117283333333,-96.98252,5.5,7.0,274,989.51,15.6,50,18.51,0.0,1015.81,156.9
2018-06-18 05:30,50.9117333333333,-96.982525,5.7,7.2,278,989.52,15.7,50,18.47,0.0,1015.84,156.9
2018-06-18 05:40,50.91173,-96.9825266666667,6.5,7.5,279,989.49,15.3,52,18.44,0.0,1015.85,156.9
2018-06-18 05:50,50.91173,-96.9825316666667,6.4,7.2,280,989.59,15.1,52,18.41,0.0,1015.98,156.9
2018-06-18 06:00,50.91173,-96.9825333333333,6.6,7.8,281,989.62,15.1,53,18.38,0.0,1016.03,312.1
2018-06-18 06:10,50.91173,-96.9825333333333,7.3,8.3,280,989.72,15.0,53,18.36,0.0,1016.15,312.1
2018-06-18 06:20,50.9117316666667,-96.9825316666667,7.0,8.1,277,989.87,15.1,53,18.33,0.0,1016.29,312.1
2018-06-18 06:30,50.9117233333333,-96.9825183333333,7.3,8.5,276,989.93,15.0,54,18.32,0.0,1016.35,312.1
2018-06-18 06:40,50.9117266666667,-96.9825283333333,7.4,8.4,278,989.93,14.8,55,18.30,0.0,1016.36,312.1
2018-06-18 06:50,50.91173,-96.9825266666667,7.1,8.0,284,989.95,14.4,56,18.27,0.0,1016.41,312.1
2018-06-18 07:00,50.9117283333333,-96.9825266666667,7.5,8.4,283,990.03,14.2,57,18.24,0.0,1016.51,139.1
2018-06-18 07:10,50.9117516666667,-96.9824816666667,8.2,9.0,283,990.05,14.0,58,18.20,0.0,1016.52,139.1
2018-06-18 07:20,50.911735,-96.9825183333333,7.8,8.6,283,990.10,14.0,59,18.16,0.0,1016.58,139.1
2018-06-18 07:30,50.9117283333333,-96.9825233333333,7.4,8.2,284,990.15,13.7,60,18.13,0.0,1016.66,139.1
2018-06-18 07:40,50.9117316666667,-96.9825166666667,7.1,8.0,282,990.18,13.6,60,18.10,0.0,1016.70,139.1
2018-06-18 07:50,50.9117333333333,-96.9825216666667,7.0,7.9,284,990.15,13.5,61,18.07,0.0,1016.68,139.1
2018-06-18 08:00,50.9117316666667,-96.9825216666667,7.0,8.1,283,990.16,13.2,62,18.03,0.0,1016.70,336.9
2018-06-18 08:10,50.9117316666667,-96.9825216666667,7.3,8.6,285,990.12,13.0,64,18.00,0.0,1016.66,336.9
2018-06-18 08:20,50.9117333333333,-96.982525,7.3,8.1,281,990.22,12.9,64,17.96,0.0,1016.78,336.9
2018-06-18 08:30,50.9117333333333,-96.9825266666667,6.7,7.6,283,990.31,12.8,65,17.92,0.0,1016.89,336.9
2018-06-18 08:40,50.911735,-96.9825266666667,6.9,7.6,286,990.34,12.6,66,17.88,0.0,1016.94,336.9
2018-06-18 08:50,50.9117366666667,-96.9825283333333,7.5,8.5,282,990.42,12.7,65,17.83,0.0,1017.03,336.9
2018-06-18 09:00,50.9117016666667,-96.9825083333333,8.0,9.1,284,990.47,12.8,65,17.80,0.0,1017.09,140.2
2018-06-18 09:10,50.9117233333333,-96.9825333333333,8.4,9.3,287,990.50,12.7,65,17.76,0.0,1017.12,140.2
2018-06-18 09:20,50.9117333333333,-96.98253,7.8,8.8,289,990.58,12.7,66,17.71,0.0,1017.22,140.2
2018-06-18 09:30,50.9117316666667,-96.9825266666667,7.7,8.3,285,990.61,12.3,68,17.67,0.0,1017.27,140.2
2018-06-18 09:40,50.9117316666667,-96.982525,8.0,8.6,285,990.70,12.3,68,17.64,0.0,1017.37,140.2
2018-06-18 09:50,50.9117316666667,-96.9825283333333,8.1,9.1,285,990.81,12.2,69,17.60,0.0,1017.50,140.2
2018-06-18 10:00,50.91173,-96.9825283333333,8.3,9.0,287,990.83,12.2,69,17.55,0.0,1017.53,90.0
2018-06-18 10:10,50.91173,-96.9825283333333,7.8,8.5,283,990.93,12.1,69,17.50,0.0,1017.64,90.0
2018-06-18 10:20,50.91173,-96.9825283333333,7.8,8.6,281,991.03,12.3,69,17.47,0.0,1017.74,90.0
2018-06-18 10:30,50.91173,-96.9825283333333,8.5,9.3,284,991.14,12.3,69,17.46,0.0,1017.86,90.0
2018-06-18 10:40,50.911755,-96.9825083333333,8.5,9.4,280,991.28,12.6,67,17.43,0.0,1017.99,90.0
2018-06-18 10:50,50.9117283333333,-96.98252,8.5,9.9,278,991.38,13.2,65,17.42,0.0,1018.05,90.0
2018-06-18 11:00,50.9117266666667,-96.982525,8.9,10.1,284,991.36,13.5,64,17.42,0.0,1018.03,270.0
2018-06-18 11:10,50.9117383333333,-96.9825533333333,9.0,10.5,287,991.48,13.3,66,17.41,0.0,1018.16,270.0
2018-06-18 11:20,50.911735,-96.9825216666667,8.6,9.8,283,991.63,13.3,67,17.39,0.0,1018.33,270.0
2018-06-18 11:30,50.9117316666667,-96.9825233333333,8.5,10.1,283,991.76,13.6,67,17.37,0.0,1018.45,270.0
2018-06-18 11:40,50.91173,-96.982525,8.7,10.5,289,991.87,13.6,69,17.37,0.0,1018.57,270.0
2018-06-18 11:50,50.9117316666667,-96.9825283333333,8.2,9.6,286,991.99,13.7,69,17.38,0.0,1018.69,270.0
2018-06-18 12:00,50.91173,-96.9825283333333,8.0,9.3,287,992.02,14.1,69,17.39,0.0,1018.71,324.3
2018-06-18 12:10,50.9117266666667,-96.982525,7.8,10.4,291,992.11,14.3,69,17.40,0.0,1018.78,324.3
2018-06-18 12:20,50.9117266666667,-96.9825266666667,8.2,9.7,291,992.14,14.7,67,17.42,0.0,1018.79,324.3
2018-06-18 12:30,50.911725,-96.9825266666667,7.8,10.6,291,992.17,15.2,66,17.43,0.0,1018.79,324.3
2018-06-18 12:40,50.9117216666667,-96.9825316666667,8.5,10.4,294,992.21,15.7,65,17.44,0.0,1018.77,324.3
2018-06-18 12:50,50.91177,-96.9825483333333,7.8,9.7,294,992.29,16.3,64,17.45,0.0,1018.81,324.3
2018-06-18 13:00,50.9117383333333,-96.9825216666667,7.2,10.2,298,992.33,17.2,61,17.47,0.0,1018.82,360.0
2018-06-18 13:10,50.9117316666667,-96.98252,7.0,9.9,297,992.40,17.9,59,17.49,0.0,1018.87,360.0
2018-06-18 13:20,50.9117283333333,-96.98252,6.5,9.4,301,992.47,18.5,57,17.51,0.0,1018.90,360.0
2018-06-18 13:30,50.9117283333333,-96.9825216666667,7.0,9.6,298,992.48,19.1,55,17.53,0.0,1018.88,360.0
2018-06-18 13:40,50.9117283333333,-96.9825233333333,6.6,9.6,307,992.51,19.8,52,17.57,0.0,1018.87,360.0
2018-06-18 13:50,50.9117283333333,-96.9825233333333,6.7,11.0,312,992.53,20.4,49,17.60,0.0,1018.84,360.0
2018-06-18 14:00,50.9117266666667,-96.9825283333333,5.5,9.2,314,992.60,21.0,48,17.64,0.0,1018.87,0.0
2018-06-18 14:10,50.9117233333333,-96.98253,6.7,10.6,329,992.59,21.6,45,17.68,0.0,1018.82,0.0
2018-06-18 14:20,50.9117233333333,-96.9825283333333,6.4,10.0,328,992.64,22.1,43,17.73,0.0,1018.82,0.0
2018-06-18 14:30,50.9117216666667,-96.9825266666667,7.1,10.8,322,992.64,22.4,41,17.79,0.0,1018.79,0.0
2018-06-18 14:40,50.91173,-96.9825283333333,6.2,9.5,336,992.66,23.0,42,17.86,0.0,1018.76,0.0
2018-06-18 14:50,50.9117233333333,-96.982525,7.0,10.5,339,992.65,23.3,40,17.94,0.0,1018.70,0.0
2018-06-18 15:00,50.911725,-96.982525,7.5,12.4,335,992.64,23.6,37,18.00,0.0,1018.64,142.5
2018-06-18 15:10,50.9117266666667,-96.982525,7.8,12.8,338,992.64,23.9,35,18.07,0.0,1018.59,142.5
2018-06-18 15:20,50.9117433333333,-96.982555,8.5,12.2,339,992.62,24.2,32,18.16,0.0,1018.53,142.5
2018-06-18 15:30,50.9117233333333,-96.9825216666667,8.7,12.2,336,992.63,24.3,30,18.23,0.0,1018.51,142.5
2018-06-18 15:40,50.9117383333333,-96.982515,7.7,12.3,327,992.68,24.5,30,18.32,0.0,1018.53,142.5
2018-06-18 15:50,50.9117366666667,-96.9825183333333,6.4,12.0,322,992.74,24.6,31,18.41,0.0,1018.56,142.5
2018-06-18 16:00,50.911735,-96.982525,5.3,10.0,345,992.83,25.1,30,18.57,0.0,1018.60,189.8
2018-06-18 16:10,50.9117333333333,-96.982525,5.2,10.7,7,992.80,25.0,34,18.73,0.0,1018.56,189.8
2018-06-18 16:20,50.9117216666667,-96.9825283333333,2.2,5.4,110,992.89,23.7,41,18.79,0.0,1018.69,189.8
2018-06-18 16:30,50.9117216666667,-96.982525,2.2,4.0,111,992.84,23.6,43,18.82,0.0,1018.62,189.8
2018-06-18 16:40,50.911715,-96.9825116666667,2.3,4.9,132,992.73,22.9,46,18.88,0.0,1018.52,189.8
2018-06-18 16:50,50.9117216666667,-96.9825133333333,2.9,9.4,50,992.75,24.0,39,18.86,0.0,1018.48,189.8
2018-06-18 17:00,50.9117283333333,-96.9825333333333,1.8,9.6,7,992.73,25.1,33,18.90,0.0,1018.40,270.0
2018-06-18 17:10,50.911725,-96.98253,3.8,8.3,115,992.79,23.7,45,18.98,0.0,1018.50,270.0
2018-06-18 17:20,50.9117266666667,-96.98253,4.2,7.4,127,992.72,23.1,46,19.05,0.0,1018.46,270.0
2018-06-18 17:30,50.911725,-96.98253,5.1,7.5,124,992.70,22.7,48,19.11,0.0,1018.45,270.0
2018-06-18 17:40,50.911725,-96.9825283333333,6.3,7.7,130,992.63,22.6,50,19.15,0.0,1018.38,270.0
2018-06-18 17:50,50.9117233333333,-96.9825283333333,7.5,10.4,139,992.54,22.2,61,19.18,0.0,1018.28,270.0
2018-06-18 18:00,50.9117233333333,-96.98253,6.8,12.6,156,992.56,21.3,68,19.20,0.0,1018.34,0.0
2018-06-18 18:10,50.9117216666667,-96.98253,7.4,8.7,139,992.54,21.9,60,19.24,0.0,1018.35,0.0
2018-06-18 18:20,50.9117216666667,-96.9825283333333,7.3,9.0,139,992.57,21.1,66,19.29,0.0,1018.42,0.0
2018-06-18 18:30,50.9117216666667,-96.9825283333333,6.7,7.7,143,992.55,21.4,62,19.33,0.0,1018.42,0.0
2018-06-18 18:40,50.9117216666667,-96.9825283333333,6.9,7.7,135,992.47,21.7,59,19.36,0.0,1018.28,0.0
2018-06-18 18:50,50.9117366666667,-96.982555,7.5,8.6,131,992.33,21.6,57,19.42,0.0,1018.09,0.0
2018-06-18 19:00,50.9117116666667,-96.9825183333333,6.9,8.6,141,992.31,21.3,66,19.45,0.0,1018.14,360.0
2018-06-18 19:10,50.911735,-96.9825083333333,6.4,7.9,150,992.20,21.3,64,19.45,0.0,1018.06,360.0
2018-06-18 19:20,50.9117183333333,-96.9825216666667,6.2,7.8,140,992.13,21.4,66,19.44,0.0,1018.00,360.0
2018-06-18 19:30,50.9117233333333,-96.9825283333333,7.0,8.4,138,992.06,21.2,66,19.44,0.0,1017.94,360.0
2018-06-18 19:40,50.911745,-96.98258,7.0,8.3,135,992.00,21.2,66,19.43,0.0,1017.90,360.0
2018-06-18 19:50,50.9117183333333,-96.9825116666667,7.2,9.4,134,991.96,21.2,67,19.41,0.0,1017.90,360.0
2018-06-18 20:00,50.9117266666667,-96.9825683333333,8.6,10.4,140,991.94,21.2,68,19.40,0.0,1017.85,270.0
2018-06-18 20:10,50.9117333333333,-96.9825383333333,8.6,10.2,147,991.97,21.3,69,19.40,0.0,1017.91,270.0
2018-06-18 20:20,50.9117316666667,-96.982535,8.5,10.4,147,991.96,21.5,64,19.42,0.0,1017.88,270.0
2018-06-18 20:30,50.91173,-96.98253,8.5,9.8,150,991.98,21.4,67,19.44,0.0,1017.89,270.0
2018-06-18 20:40,50.91174,-96.9825216666667,8.0,9.5,150,991.95,21.5,65,19.47,0.0,1017.86,270.0
2018-06-18 20:50,50.9117333333333,-96.9825233333333,8.1,9.2,154,991.93,21.3,67,19.52,0.0,1017.87,270.0
2018-06-18 21:00,50.9117233333333,-96.9825233333333,8.3,9.3,152,991.93,21.4,63,19.57,0.0,1017.86,90.0
2018-06-18 21:10,50.9117283333333,-96.9825233333333,8.5,9.5,156,991.91,21.6,60,19.60,0.0,1017.83,90.0
2018-06-18 21:20,50.911725,-96.9825233333333,8.0,9.1,155,991.85,21.8,57,19.63,0.0,1017.76,90.0
2018-06-18 21:30,50.911725,-96.9825216666667,6.9,8.4,156,991.81,22.0,56,19.66,0.0,1017.71,90.0
2018-06-18 21:40,50.9117266666667,-96.982525,6.4,7.8,160,991.82,22.3,55,19.69,0.0,1017.71,90.0
2018-06-18 21:50,50.911725,-96.982525,6.9,8.3,159,991.79,22.5,51,19.72,0.0,1017.67,90.0
2018-06-18 22:00,50.911725,-96.9825233333333,6.7,7.7,154,991.81,22.7,47,19.77,0.0,1017.68,360.0
2018-06-18 22:10,50.911725,-96.9825233333333,6.8,7.6,153,991.76,22.8,46,19.82,0.0,1017.61,360.0
2018-06-18 22:20,50.911725,-96.982525,6.7,7.4,153,991.73,22.9,45,19.86,0.0,1017.58,360.0
2018-06-18 22:30,50.911725,-96.982525,5.9,6.7,156,991.67,23.0,46,19.90,0.0,1017.51,360.0
2018-06-18 22:40,50.9117116666667,-96.982525,4.5,6.2,160,991.62,23.1,47,19.94,0.0,1017.46,360.0
2018-06-18 22:50,50.9117216666667,-96.982525,3.5,5.1,166,991.59,23.5,49,19.97,0.0,1017.41,360.0
2018-06-18 23:00,50.9117233333333,-96.982535,3.3,5.0,164,991.51,23.8,45,20.00,0.0,1017.30,104.4
2018-06-18 23:10,50.911725,-96.9825383333333,3.0,4.2,169,991.42,24.1,40,20.03,0.0,1017.20,104.4
2018-06-18 23:20,50.9117233333333,-96.982535,2.8,3.8,171,991.39,24.3,38,20.05,0.0,1017.14,104.4
2018-06-18 23:30,50.9117183333333,-96.9825283333333,2.1,3.0,173,991.34,24.7,34,20.07,0.0,1017.06,104.4
